Location: Martley
(52.2333°N, 2.3667°W)
Time: 16:31:29
(UTC+00:00)

Cosmos 1674 Rocket - Pass Details

Date: 11 December 2019
Orbit: 602 x 631 km, 82.5° (Epoch: 27 January)

Event Time Altitude Azimuth Distance (km) Brightness Sun altitude
Exits shadow 06:46:09 - 344° (NNW) 2,487 6.3 -11.6°
Reaches altitude 10° 06:47:26 10° 341° (NNW) 1,978 5.8 -11.5°
Maximum altitude 06:51:40 51° 265° (W) 768 3.7 -10.9°
Drops below altitude 10° 06:55:51 10° 190° (S) 1,949 6.3 -10.3°
Sets 06:58:05 0° 185° (S) 2,846 7.2 -10.0°
